Time,TemperatureF,DewpointF,PressureIn,WindDirection,WindDirectionDegrees,WindSpeedMPH,WindSpeedGustMPH,Humidity,HourlyPrecipIn,Conditions,Clouds,dailyrainin,SoftwareType,DateUTC
2013-06-18 00:00:00,70.0,68.0,-100.00,SE,131,0.0,5.0,94,0.00,,,-99.99,,2013-06-18 04:00:00,
2013-06-18 00:34:00,70.0,68.0,-100.00,SE,131,0.0,5.0,94,0.00,,,-99.99,,2013-06-18 04:34:00,
2013-06-18 00:43:00,70.0,68.0,-100.00,SE,131,0.0,5.0,94,0.00,,,-99.99,,2013-06-18 04:43:00,
2013-06-18 00:54:00,70.0,68.0,-100.00,SE,131,0.0,5.0,94,0.00,,,-99.99,,2013-06-18 04:54:00,
2013-06-18 01:00:00,69.0,68.0,-100.00,SSE,152,0.0,3.0,96,0.00,,,-99.99,,2013-06-18 05:00:00,
2013-06-18 01:34:00,69.0,68.0,-100.00,SSE,152,0.0,3.0,96,0.00,,,-99.99,,2013-06-18 05:34:00,
2013-06-18 01:43:00,69.0,68.0,-100.00,SSE,152,0.0,3.0,96,0.00,,,-99.99,,2013-06-18 05:43:00,
2013-06-18 01:53:00,69.0,68.0,-100.00,SSE,152,0.0,3.0,96,0.00,,,-99.99,,2013-06-18 05:53:00,
2013-06-18 02:00:00,69.0,68.0,-100.00,SSE,161,0.0,7.0,94,0.00,,,-99.99,,2013-06-18 06:00:00,
2013-06-18 02:33:00,69.0,68.0,-100.00,SSE,161,0.0,7.0,94,0.00,,,-99.99,,2013-06-18 06:33:00,
2013-06-18 02:43:00,69.0,68.0,-100.00,SSE,161,0.0,7.0,94,0.00,,,-99.99,,2013-06-18 06:43:00,
2013-06-18 02:53:00,69.0,68.0,-100.00,SSE,161,0.0,7.0,94,0.00,,,-99.99,,2013-06-18 06:53:00,
2013-06-18 03:00:00,69.0,68.0,-100.00,SSW,200,0.0,5.0,96,0.00,,,-99.99,,2013-06-18 07:00:00,
2013-06-18 03:33:00,69.0,68.0,-100.00,SSW,200,0.0,5.0,96,0.00,,,-99.99,,2013-06-18 07:33:00,
2013-06-18 03:43:00,69.0,68.0,-100.00,SSW,200,0.0,5.0,96,0.00,,,-99.99,,2013-06-18 07:43:00,
2013-06-18 03:53:00,69.0,68.0,-100.00,SSW,200,0.0,5.0,96,0.00,,,-99.99,,2013-06-18 07:53:00,
2013-06-18 04:00:00,69.0,68.0,-100.00,SSE,162,0.0,5.0,97,0.00,,,-99.99,,2013-06-18 08:00:00,
2013-06-18 04:33:00,69.0,68.0,-100.00,SSE,162,0.0,5.0,97,0.00,,,-99.99,,2013-06-18 08:33:00,
2013-06-18 04:43:00,69.0,68.0,-100.00,SSE,162,0.0,5.0,97,0.00,,,-99.99,,2013-06-18 08:43:00,
2013-06-18 04:52:00,69.0,68.0,-100.00,SSE,162,0.0,5.0,97,0.00,,,-99.99,,2013-06-18 08:52:00,
2013-06-18 05:00:00,68.0,67.0,-100.00,SSE,167,0.0,5.0,98,0.00,,,-99.99,,2013-06-18 09:00:00,
2013-06-18 05:34:00,68.0,67.0,-100.00,SSE,167,0.0,5.0,98,0.00,,,-99.99,,2013-06-18 09:34:00,
2013-06-18 05:43:00,68.0,67.0,-100.00,SSE,167,0.0,5.0,98,0.00,,,-99.99,,2013-06-18 09:43:00,
2013-06-18 05:53:00,68.0,67.0,-100.00,SSE,167,0.0,5.0,98,0.00,,,-99.99,,2013-06-18 09:53:00,
2013-06-18 06:00:00,68.0,67.0,-100.00,SSE,167,2.0,5.0,98,0.00,,,-99.99,,2013-06-18 10:00:00,
2013-06-18 06:33:00,68.0,67.0,-100.00,SSE,167,2.0,5.0,98,0.00,,,-99.99,,2013-06-18 10:33:00,
2013-06-18 06:43:00,68.0,67.0,-100.00,SSE,167,2.0,5.0,98,0.00,,,-99.99,,2013-06-18 10:43:00,
2013-06-18 06:53:00,68.0,67.0,-100.00,SSE,167,2.0,5.0,98,0.00,,,-99.99,,2013-06-18 10:53:00,
2013-06-18 07:00:00,68.0,68.0,-100.00,South,180,2.0,6.0,98,0.00,,,-99.99,,2013-06-18 11:00:00,
2013-06-18 07:32:00,68.0,68.0,-100.00,South,180,2.0,6.0,98,0.00,,,-99.99,,2013-06-18 11:32:00,
2013-06-18 07:43:00,68.0,68.0,-100.00,South,180,2.0,6.0,98,0.00,,,-99.99,,2013-06-18 11:43:00,
2013-06-18 07:52:00,68.0,68.0,-100.00,South,180,2.0,6.0,98,0.00,,,-99.99,,2013-06-18 11:52:00,
2013-06-18 08:00:00,69.0,68.0,-100.00,South,190,2.0,7.0,97,0.00,,,-99.99,,2013-06-18 12:00:00,
2013-06-18 08:33:00,69.0,68.0,-100.00,South,190,2.0,7.0,97,0.00,,,-99.99,,2013-06-18 12:33:00,
2013-06-18 08:43:00,69.0,68.0,-100.00,South,190,2.0,7.0,97,0.00,,,-99.99,,2013-06-18 12:43:00,
2013-06-18 08:52:00,69.0,68.0,-100.00,South,190,2.0,7.0,97,0.00,,,-99.99,,2013-06-18 12:52:00,
2013-06-18 09:00:00,71.0,70.0,-100.00,East,79,0.0,6.0,96,0.00,,,-99.99,,2013-06-18 13:00:00,
2013-06-18 09:34:00,71.0,70.0,-100.00,East,79,0.0,6.0,96,0.00,,,-99.99,,2013-06-18 13:34:00,
2013-06-18 09:43:00,71.0,70.0,-100.00,East,79,0.0,6.0,96,0.00,,,-99.99,,2013-06-18 13:43:00,
2013-06-18 09:53:00,71.0,70.0,-100.00,East,79,0.0,6.0,96,0.00,,,-99.99,,2013-06-18 13:53:00,
2013-06-18 10:00:00,73.0,70.0,-100.00,ESE,110,0.0,7.0,93,0.00,,,-99.99,,2013-06-18 14:00:00,
2013-06-18 10:33:00,73.0,70.0,-100.00,ESE,110,0.0,7.0,93,0.00,,,-99.99,,2013-06-18 14:33:00,
2013-06-18 10:43:00,73.0,70.0,-100.00,ESE,110,0.0,7.0,93,0.00,,,-99.99,,2013-06-18 14:43:00,
2013-06-18 10:53:00,73.0,70.0,-100.00,ESE,110,0.0,7.0,93,0.00,,,-99.99,,2013-06-18 14:53:00,
2013-06-18 11:00:00,72.0,70.0,-100.00,South,169,6.0,8.0,92,0.00,,,-99.99,,2013-06-18 15:00:00,
2013-06-18 11:33:00,72.0,70.0,-100.00,South,169,6.0,8.0,92,0.00,,,-99.99,,2013-06-18 15:33:00,
2013-06-18 11:43:00,72.0,70.0,-100.00,South,169,6.0,8.0,92,0.00,,,-99.99,,2013-06-18 15:43:00,
2013-06-18 11:53:00,72.0,70.0,-100.00,South,169,6.0,8.0,92,0.00,,,-99.99,,2013-06-18 15:53:00,
2013-06-18 12:00:00,73.0,71.0,-100.00,SSE,147,2.0,9.0,93,0.00,,,-99.99,,2013-06-18 16:00:00,
2013-06-18 12:33:00,73.0,71.0,-100.00,SSE,147,2.0,9.0,93,0.00,,,-99.99,,2013-06-18 16:33:00,
2013-06-18 12:43:00,73.0,71.0,-100.00,SSE,147,2.0,9.0,93,0.00,,,-99.99,,2013-06-18 16:43:00,
2013-06-18 12:53:00,73.0,71.0,-100.00,SSE,147,2.0,9.0,93,0.00,,,-99.99,,2013-06-18 16:53:00,
2013-06-18 13:00:00,72.0,70.0,-100.00,SSE,152,1.0,10.0,92,0.00,,,-99.99,,2013-06-18 17:00:00,
2013-06-18 13:34:00,72.0,70.0,-100.00,SSE,152,1.0,10.0,92,0.00,,,-99.99,,2013-06-18 17:34:00,
2013-06-18 13:43:00,72.0,70.0,-100.00,SSE,152,1.0,10.0,92,0.00,,,-99.99,,2013-06-18 17:43:00,
2013-06-18 13:53:00,72.0,70.0,-100.00,SSE,152,1.0,10.0,92,0.00,,,-99.99,,2013-06-18 17:53:00,
2013-06-18 14:00:00,71.0,70.0,-100.00,SE,146,5.0,9.0,96,0.00,,,-99.99,,2013-06-18 18:00:00,
2013-06-18 14:33:00,71.0,70.0,-100.00,SE,146,5.0,9.0,96,0.00,,,-99.99,,2013-06-18 18:33:00,
2013-06-18 14:43:00,71.0,70.0,-100.00,SE,146,5.0,9.0,96,0.00,,,-99.99,,2013-06-18 18:43:00,
2013-06-18 14:53:00,71.0,70.0,-100.00,SE,146,5.0,9.0,96,0.00,,,-99.99,,2013-06-18 18:53:00,
2013-06-18 15:00:00,69.0,69.0,-100.00,South,189,2.0,9.0,98,0.04,,,-99.99,,2013-06-18 19:00:00,
2013-06-18 15:33:00,69.0,69.0,-100.00,South,189,2.0,9.0,98,0.04,,,-99.99,,2013-06-18 19:33:00,
2013-06-18 15:43:00,69.0,69.0,-100.00,South,189,2.0,9.0,98,0.04,,,-99.99,,2013-06-18 19:43:00,
2013-06-18 15:53:00,69.0,69.0,-100.00,South,189,2.0,9.0,98,0.04,,,-99.99,,2013-06-18 19:53:00,
2013-06-18 16:00:00,68.0,67.0,-100.00,North,6,7.0,18.0,97,0.16,,,-99.99,,2013-06-18 20:00:00,
2013-06-18 16:33:00,68.0,67.0,-100.00,North,6,7.0,18.0,97,0.16,,,-99.99,,2013-06-18 20:33:00,
2013-06-18 16:43:00,68.0,67.0,-100.00,North,6,7.0,18.0,97,0.16,,,-99.99,,2013-06-18 20:43:00,
2013-06-18 16:53:00,68.0,67.0,-100.00,North,6,7.0,18.0,97,0.16,,,-99.99,,2013-06-18 20:53:00,
2013-06-18 17:00:00,67.0,66.0,-100.00,ESE,115,6.0,21.0,97,0.13,,,-99.99,,2013-06-18 21:00:00,
2013-06-18 17:33:00,67.0,66.0,-100.00,ESE,115,6.0,21.0,97,0.13,,,-99.99,,2013-06-18 21:33:00,
2013-06-18 17:43:00,67.0,66.0,-100.00,ESE,115,6.0,21.0,97,0.13,,,-99.99,,2013-06-18 21:43:00,
2013-06-18 17:52:00,67.0,66.0,-100.00,ESE,115,6.0,21.0,97,0.13,,,-99.99,,2013-06-18 21:52:00,
2013-06-18 18:00:00,65.0,65.0,-100.00,ENE,63,5.0,21.0,97,0.37,,,-99.99,,2013-06-18 22:00:00,
2013-06-18 18:34:00,65.0,65.0,-100.00,ENE,63,5.0,21.0,97,0.37,,,-99.99,,2013-06-18 22:34:00,
2013-06-18 18:43:00,65.0,65.0,-100.00,ENE,63,5.0,21.0,97,0.37,,,-99.99,,2013-06-18 22:43:00,
2013-06-18 18:53:00,65.0,65.0,-100.00,ENE,63,5.0,21.0,97,0.37,,,-99.99,,2013-06-18 22:53:00,
2013-06-18 19:00:00,66.0,64.0,-100.00,ENE,74,8.0,21.0,95,0.12,,,-99.99,,2013-06-18 23:00:00,
2013-06-18 19:39:00,66.0,64.0,-100.00,ENE,74,8.0,21.0,95,0.12,,,-99.99,,2013-06-18 23:39:00,
2013-06-18 19:48:00,66.0,64.0,-100.00,ENE,74,8.0,21.0,95,0.12,,,-99.99,,2013-06-18 23:48:00,
2013-06-18 20:00:00,66.0,65.0,-100.00,East,81,5.0,17.0,94,0.01,,,-99.99,,2013-06-19 00:00:00,
2013-06-18 20:33:00,66.0,65.0,-100.00,East,81,5.0,17.0,94,0.01,,,-99.99,,2013-06-19 00:33:00,
2013-06-18 20:43:00,66.0,65.0,-100.00,East,81,5.0,17.0,94,0.01,,,-99.99,,2013-06-19 00:43:00,
2013-06-18 20:53:00,66.0,65.0,-100.00,East,81,5.0,17.0,94,0.01,,,-99.99,,2013-06-19 00:53:00,
2013-06-18 21:00:00,66.0,63.0,-100.00,NNE,24,5.0,21.0,90,0.00,,,-99.99,,2013-06-19 01:00:00,
2013-06-18 21:32:00,66.0,63.0,-100.00,NNE,24,5.0,21.0,90,0.00,,,-99.99,,2013-06-19 01:32:00,
2013-06-18 21:43:00,66.0,63.0,-100.00,NNE,24,5.0,21.0,90,0.00,,,-99.99,,2013-06-19 01:43:00,
2013-06-18 21:53:00,66.0,63.0,-100.00,NNE,24,5.0,21.0,90,0.00,,,-99.99,,2013-06-19 01:53:00,
2013-06-18 22:00:00,66.0,64.0,-100.00,ENE,77,6.0,13.0,95,0.00,,,-99.99,,2013-06-19 02:00:00,
2013-06-18 22:32:00,66.0,64.0,-100.00,ENE,77,6.0,13.0,95,0.00,,,-99.99,,2013-06-19 02:32:00,
2013-06-18 22:43:00,66.0,64.0,-100.00,ENE,77,6.0,13.0,95,0.00,,,-99.99,,2013-06-19 02:43:00,
2013-06-18 22:52:00,66.0,64.0,-100.00,ENE,77,6.0,13.0,95,0.00,,,-99.99,,2013-06-19 02:52:00,
2013-06-18 23:00:00,66.0,64.0,-100.00,NE,53,6.0,15.0,94,0.00,,,-99.99,,2013-06-19 03:00:00,
2013-06-18 23:33:00,66.0,64.0,-100.00,NE,53,6.0,15.0,94,0.00,,,-99.99,,2013-06-19 03:33:00,
2013-06-18 23:43:00,66.0,64.0,-100.00,NE,53,6.0,15.0,94,0.00,,,-99.99,,2013-06-19 03:43:00,
2013-06-18 23:52:00,66.0,64.0,-100.00,NE,53,6.0,15.0,94,0.00,,,-99.99,,2013-06-19 03:52:00,